Starlink 11413

operational
NORAD ID: 62593 Int'l Des: 2025-008 Owner: SPXS Country: US Constellation: starlink
LEOCIRCULAR

About Starlink 11413

Description loading...

Live Position

Loading 3D Globe...

Upcoming Passes

Altitude History

Altitude vs Time

uPlot chart will show altitude changes over time

Two-Line Element Set

1 62593U 25008G 25311.66668980 .00014621 00000-0 11695-3 0 9990
2 62593 43.0000 141.9675 0002026 259.5964 328.4773 15.70897742 5950
Epoch: Nov 7, 2025 • Age: 63 hours

Current Status

Altitude 355.3 km
Velocity 7.70 km/s
Sub-Earth Point 7.85°N, 22.7°W
Launch Date Jan 13, 2025
Age 0.8 years
Type internet

Technical Details

Classification Payload
Mass 960.00 kg
Dry Mass 910.00 kg
Total Mass 960.00 kg
Length 0.30 m
Diameter 4.10 m
Span 29.00 m
Shape Box + pan
Manufacturer SPXS
Bus Type Starlink V2MD
Phase Status In Orbit
Owner/State SPXS/US

Large Constellations

Loading constellations...